Find Local Weather

World > North America > United States > South Carolina

Mountain Rest, South Carolina Regional Weather

Lat: 34.87N, Lon: 83.15W
Wx Zone: SCZ001
Feedback

Mountain Rest, SC Regional Weather

Expires:201903201900;;661393
ASUS42 KCAE 201810
RWRCAE
REGIONAL WEATHER ROUNDUP
NATIONAL WEATHER SERVICE COLUMBIA SC
200 PM EDT WED MAR 20 2019

NOTE: "FAIR" INDICATES FEW OR NO CLOUDS BELOW 12,000 FEET WITH NO
SIGNIFICANT WEATHER AND/OR OBSTRUCTIONS TO VISIBILITY.

NOT ALL STATIONS ARE QUALITY CONTROLLED BY THE NATIONAL 
WEATHER SERVICE. USE DATA WITH CAUTION...ESPECIALLY 
DEWPOINT OBSERVATIONS.


SCZ001>056-GAZ040-063>065-077-201900-
...UPSTATE SOUTH CAROLINA...
  
CITY           SKY/WX    TMP DP  RH WIND       PRES   REMARKS
ANDERSON       FAIR      57  19  22 CALM      30.21F                  
6HR MIN TEMP:  35; 6HR MAX TEMP:  60;                                

LIBERTY        FAIR      58  19  21 SE6       30.21F                  
6HR MIN TEMP:  26; 6HR MAX TEMP:  58;                                

SPARTANBURG    FAIR      55  19  24 NE10      30.22F                  
CLEMSON        FAIR      57  22  25 VRB6      30.23F                  
6HR MIN TEMP:  35; 6HR MAX TEMP:  57;                                

GREENVILLE     FAIR      59  24  26 NE8G16    30.22F                  
6HR MIN TEMP:  37; 6HR MAX TEMP:  59;                                

GREENWOOD      FAIR      58  28  32 NE9       30.21F                  
6HR MIN TEMP:  30; 6HR MAX TEMP:  58;                                

GREER          FAIR      57  21  24 N12       30.22F                  
6HR MIN TEMP:  35; 6HR MAX TEMP:  57;                                

ROCK HILL      FAIR      58  28  32 N9G16     30.22F                  
6HR MIN TEMP:  29; 6HR MAX TEMP:  58; 6HR PCP: TRACE;                

CHESTER        FAIR      57  27  30 NE12G17   30.22F                  
LAURENS        FAIR      59  30  33 CALM      30.20F                  


...CENTRAL SOUTH CAROLINA...
  
CITY           SKY/WX    TMP DP  RH WIND       PRES   REMARKS
COLUMBIA APT   CLOUDY    60  31  33 NE13      30.18F                  
6HR MIN TEMP:  32; 6HR MAX TEMP:  60;                                

COLUMBIA OWENS CLOUDY    59  28  30 VRB7      30.20F                  
6HR MIN TEMP:  40; 6HR MAX TEMP:  59;                                

MCENTIRE ANGB  CLOUDY    57  35  42 NE6       30.19F                  
6HR MIN TEMP:  41; 6HR MAX TEMP:  58; 6HR PCP: TRACE;                

ORANGEBURG     CLOUDY    55  38  52 N12       30.19F                  
6HR MIN TEMP:  39; 6HR MAX TEMP:  55;                                

SUMTER SHAW    LGT RAIN  54  38  54 N12       30.19F                  
6HR MIN TEMP:  43; 6HR MAX TEMP:  55; 6HR PCP: TRACE;                

NEWBERRY       FAIR      59  30  33 NE9G16    30.23F                  
AIKEN          CLOUDY    59  30  33 N9G18     30.21F                  
BARNWELL       CLOUDY    61  37  41 NE14      30.17F                  
MANNING        DRIZZLE   45  45 100 NE9       30.19F                  
CAMDEN         CLOUDY    55  30  38 N12       30.20F                  
LANCASTER      CLOUDY    55  21  26 NE6       30.23F                  
WINNSBORO      CLOUDY    57  28  33 NE10G17   30.21F                  


...EASTERN AND COASTAL SOUTH CAROLINA...
  
CITY           SKY/WX    TMP DP  RH WIND       PRES   REMARKS
MYRTLE BEACH   CLOUDY    51  43  74 N14       30.14F                  
6HR MIN TEMP:  46; 6HR MAX TEMP:  51; 6HR PCP: TRACE;                

N MYRTLE BCH   CLOUDY    52  44  74 N12       30.13F                  
6HR MIN TEMP:  45; 6HR MAX TEMP:  53; 6HR PCP: TRACE;                

CONWAY         CLOUDY    46  43  87 N7        30.16F FOG              
MARION         CLOUDY    45  43  93 N10       30.19F                  
HARTSVILLE     CLOUDY    50  36  57 N9        30.20F                  
FLORENCE       LGT RAIN  49  44  83 NE13      30.19F                  
6HR MIN TEMP:  45; 6HR MAX TEMP:  51; 6HR PCP: TRACE;                

DARLINGTON     CLOUDY    50  38  63 N15       30.21F                  
6HR MIN TEMP:  40; 6HR MAX TEMP:  52; 6HR PCP: TRACE;                

CHARLESTON APT CLOUDY    52  42  69 N18       30.17S                  
6HR MIN TEMP:  41; 6HR MAX TEMP:  59;                                

MOUNT PLEASANT CLOUDY    52  45  76 NW8       30.16F                  
WALTERBORO     CLOUDY    54  39  58 N10       30.18F                  
BEAUFORT       PTSUNNY   65  45  48 N8        30.14F                  
6HR MIN TEMP:  44; 6HR MAX TEMP:  65;                                

HILTON HEAD    MOSUNNY   61  43  51 N8G16     30.15F                  


...EASTERN GEORGIA...
  
CITY           SKY/WX    TMP DP  RH WIND       PRES   REMARKS
AUGUSTA BUSH F FAIR      63  32  31 N8        30.18F                  
6HR MIN TEMP:  32; 6HR MAX TEMP:  64;                                

AUGUSTA DANIEL PTSUNNY   62  28  27 N14       30.19F                  
6HR MIN TEMP:  38; 6HR MAX TEMP:  62;                                

CLAXTON        FAIR      64  38  38 NW8       30.15F                  
6HR MIN TEMP:  33; 6HR MAX TEMP:  64;                                

SYLVANIA       FAIR      63  41  43 NE6       30.17F                  
6HR MIN TEMP:  37; 6HR MAX TEMP:  63;                                

STATESBORO     FAIR      62  37  40 N13G18    30.15F                  
6HR MIN TEMP:  37; 6HR MAX TEMP:  62;                                

SAVANNAH       FAIR      65  43  44 N12G17    30.14F                  
6HR MIN TEMP:  38; 6HR MAX TEMP:  66;                                



...SOUTHERN NORTH CAROLINA...
  
CITY           SKY/WX    TMP DP  RH WIND       PRES   REMARKS
CHARLOTTE      FAIR      58  25  28 N10       30.23F                  
6HR MIN TEMP:  33; 6HR MAX TEMP:  58;                                

MONROE         CLOUDY    55  25  31 NE9       30.21F                  
6HR MIN TEMP:  34; 6HR MAX TEMP:  55;                                

WADESBORO      CLOUDY    54  22  28 NE9       30.22F                  
ROCKINGHAM     CLOUDY    48  34  58 N6        30.22F                  
ASHEVILLE      FAIR      55  23  28 SE5       30.19F                  
6HR MIN TEMP:  27; 6HR MAX TEMP:  55;                                


$$
  

SKY/WX - Weather  TMP - Temperature  DP - Dew Point  RH - Relative Humidity
WIND - Wind Direction/Speed PRES - Barometric Pressure VSB - Visibility
WCI - Wind Chill Index E13G22 Wind - East Wind 13 mph/Gusts of 22 mph